User: anonymous   Login
Location: Unspecified
(0.0000°N, 0.0000°E)
Time: 08:56:06
(UTC+00:00)
Language:

STARLINK-34621 - Orbit

View from above orbital plane
View from above orbital plane
View from above satellite
View from above satellite

Ground track
Ground track

The orbit is defined by the following mean orbital elements,

1 64774U          26145.53776294 +.00000000 +00000-0 +60703-4 0 00002
2 64774  53.1623 246.0698 0000383 177.7007 182.3996 15.30199249    09
Epoch (UTC): 25 May 2026 12:54:22
Eccentricity: 0.0000383
inclination: 53.1623°
perigee height: 475 km
apogee height: 475 km
right ascension of ascending node: 246.0698°
argument of perigee: 177.7007°
revolutions per day: 15.30199249
mean anomaly at epoch: 182.3996°

The dashed part of the orbit path shows where the satellite is in the earth's shadow,  

DLR